| time (UTC) | temp F | wind direction | speed MPH | gust MPH | rain 1hr in | rain 24hr in | rain mn in | humidity % | barometer mb |
| 20260510004903 | 100 | 310 | 8.0 | 16.0 | 0.00 | 0.00 | 0.00 | 16 | 1009.4 |
| 20260510004401 | 102 | 301 | 9.0 | 12.0 | 0.00 | 0.00 | 0.00 | 15 | 1009.4 |
| 20260510003858 | 101 | 332 | 11.0 | 13.0 | 0.00 | 0.00 | 0.00 | 15 | 1009.6 |
| 20260510003355 | 102 | 304 | 9.0 | 11.0 | 0.00 | 0.00 | 0.00 | 15 | 1009.4 |
| 20260510002854 | 102 | 298 | 9.0 | 13.0 | 0.00 | 0.00 | 0.00 | 15 | 1009.5 |
| 20260510002352 | 102 | 259 | 8.0 | 11.0 | 0.00 | 0.00 | 0.00 | 15 | 1009.5 |
| 20260510001848 | 103 | 261 | 11.0 | 12.0 | 0.00 | 0.00 | 0.00 | 14 | 1009.6 |
| 20260510001346 | 102 | 314 | 4.0 | 11.0 | 0.00 | 0.00 | 0.00 | 14 | 1009.6 |
| 20260510000842 | 103 | 317 | 7.0 | 9.0 | 0.00 | 0.00 | 0.00 | 14 | 1009.6 |
| 20260510000341 | 103 | 309 | 6.0 | 9.0 | 0.00 | 0.00 | 0.00 | 14 | 1009.5 |
| 20260509235836 | 103 | 303 | 4.0 | 10.0 | 0.00 | 0.00 | 0.00 | 14 | 1009.7 |
| 20260509235332 | 103 | 312 | 6.0 | 12.0 | 0.00 | 0.00 | 0.00 | 14 | 1009.6 |
| 20260509234828 | 104 | 246 | 7.0 | 11.0 | 0.00 | 0.00 | 0.00 | 14 | 1009.8 |
| 20260509234325 | 104 | 261 | 7.0 | 10.0 | 0.00 | 0.00 | 0.00 | 11 | 1009.8 |
| 20260509233824 | 105 | 280 | 5.0 | 11.0 | 0.00 | 0.00 | 0.00 | 13 | 1009.8 |
| 20260509233321 | 104 | 255 | 8.0 | 14.0 | 0.00 | 0.00 | 0.00 | 12 | 1009.7 |
| 20260509232816 | 104 | 256 | 7.0 | 10.0 | 0.00 | 0.00 | 0.00 | 12 | 1009.6 |
| 20260509232314 | 104 | 264 | 6.0 | 15.0 | 0.00 | 0.00 | 0.00 | 12 | 1009.6 |
| 20260509231810 | 104 | 256 | 7.0 | 15.0 | 0.00 | 0.00 | 0.00 | 11 | 1009.7 |
| 20260509231307 | 104 | 249 | 9.0 | 16.0 | 0.00 | 0.00 | 0.00 | 11 | 1009.9 |
| 20260509230805 | 104 | 251 | 8.0 | 12.0 | 0.00 | 0.00 | 0.00 | 11 | 1009.9 |
| 20260509230302 | 105 | 251 | 6.0 | 13.0 | 0.00 | 0.00 | 0.00 | 10 | 1009.9 |
| 20260509225756 | 105 | 246 | 8.0 | 12.0 | 0.00 | 0.00 | 0.00 | 10 | 1009.9 |
| 20260509225253 | 105 | 247 | 11.0 | 15.0 | 0.00 | 0.00 | 0.00 | 11 | 1010.1 |
| 20260509224749 | 104 | 243 | 10.0 | 15.0 | 0.00 | 0.00 | 0.00 | 10 | 1010.1 |
| 20260509224247 | 104 | 245 | 10.0 | 14.0 | 0.00 | 0.00 | 0.00 | 10 | 1010.0 |
| 20260509223743 | 105 | 243 | 6.0 | 12.0 | 0.00 | 0.00 | 0.00 | 11 | 1010.0 |
| 20260509223240 | 105 | 240 | 7.0 | 14.0 | 0.00 | 0.00 | 0.00 | 10 | 1010.2 |
| 20260509222737 | 105 | 260 | 9.0 | 14.0 | 0.00 | 0.00 | 0.00 | 11 | 1010.2 |
| 20260509222232 | 105 | 315 | 7.0 | 11.0 | 0.00 | 0.00 | 0.00 | 11 | 1010.1 |
| 20260509221728 | 105 | 311 | 5.0 | 6.0 | 0.00 | 0.00 | 0.00 | 10 | 1010.2 |
| 20260509221224 | 106 | 226 | 3.0 | 10.0 | 0.00 | 0.00 | 0.00 | 10 | 1010.4 |
| 20260509220720 | 105 | 226 | 6.0 | 15.0 | 0.00 | 0.00 | 0.00 | 10 | 1010.5 |
| 20260509220217 | 107 | 188 | 1.0 | 10.0 | 0.00 | 0.00 | 0.00 | 10 | 1010.4 |
| 20260509215713 | 107 | 202 | 3.0 | 7.0 | 0.00 | 0.00 | 0.00 | 10 | 1010.7 |
| 20260509215209 | 104 | 113 | 3.0 | 7.0 | 0.00 | 0.00 | 0.00 | 9 | 1010.5 |
| 20260509214707 | 104 | 5 | 1.0 | 4.0 | 0.00 | 0.00 | 0.00 | 10 | 1010.7 |
| 20260509214204 | 105 | 133 | 4.0 | 5.0 | 0.00 | 0.00 | 0.00 | 9 | 1010.8 |
| 20260509213701 | 105 | 127 | 6.0 | 7.0 | 0.00 | 0.00 | 0.00 | 9 | 1010.8 |
| 20260509213156 | 105 | 149 | 2.0 | 5.0 | 0.00 | 0.00 | 0.00 | 9 | 1010.9 |
| 20260509212653 | 105 | 107 | 3.0 | 6.0 | 0.00 | 0.00 | 0.00 | 9 | 1011.0 |
| 20260509212151 | 104 | 74 | 2.0 | 5.0 | 0.00 | 0.00 | 0.00 | 9 | 1011.0 |
| 20260509211646 | 105 | 88 | 2.0 | 7.0 | 0.00 | 0.00 | 0.00 | 9 | 1011.1 |
| 20260509211143 | 105 | 44 | 2.0 | 4.0 | 0.00 | 0.00 | 0.00 | 9 | 1011.3 |
| 20260509210640 | 104 | 126 | 3.0 | 6.0 | 0.00 | 0.00 | 0.00 | 8 | 1011.4 |
| 20260509210137 | 104 | 40 | 2.0 | 5.0 | 0.00 | 0.00 | 0.00 | 8 | 1011.4 |
| 20260509205632 | 103 | 56 | 2.0 | 6.0 | 0.00 | 0.00 | 0.00 | 9 | 1011.4 |
| 20260509205127 | 104 | 89 | 3.0 | 8.0 | 0.00 | 0.00 | 0.00 | 8 | 1011.5 |
| 20260509204623 | 104 | 112 | 2.0 | 5.0 | 0.00 | 0.00 | 0.00 | 8 | 1011.5 |
| 20260509204120 | 103 | 299 | 2.0 | 3.0 | 0.00 | 0.00 | 0.00 | 8 | 1011.7 |
| 20260509203615 | 102 | 123 | 2.0 | 9.0 | 0.00 | 0.00 | 0.00 | 8 | 1011.7 |
| 20260509203109 | 104 | 182 | 1.0 | 4.0 | 0.00 | 0.00 | 0.00 | 8 | 1011.8 |
| 20260509202608 | 103 | 125 | 1.0 | 7.0 | 0.00 | 0.00 | 0.00 | 8 | 1012.2 |
| 20260509202104 | 101 | 118 | 4.0 | 5.0 | 0.00 | 0.00 | 0.00 | 8 | 1012.1 |
| 20260509201604 | 103 | 105 | 4.0 | 4.0 | 0.00 | 0.00 | 0.00 | 8 | 1012.2 |
| 20260509201103 | 103 | 132 | 5.0 | 5.0 | 0.00 | 0.00 | 0.00 | 8 | 1012.2 |
| 20260509200602 | 102 | 323 | 0.0 | 4.0 | 0.00 | 0.00 | 0.00 | 9 | 1012.2 |
| 20260509200053 | 100 | 238 | 3.0 | 4.0 | 0.00 | 0.00 | 0.00 | 9 | 1012.4 |
| 20260509195549 | 102 | 17 | 2.0 | 5.0 | 0.00 | 0.00 | 0.00 | 8 | 1012.4 |
| 20260509195043 | 101 | 235 | 0.0 | 4.0 | 0.00 | 0.00 | 0.00 | 8 | 1012.4 |
| 20260509194538 | 101 | 100 | 3.0 | 5.0 | 0.00 | 0.00 | 0.00 | 8 | 1012.5 |
| 20260509194037 | 100 | 66 | 0.0 | 4.0 | 0.00 | 0.00 | 0.00 | 8 | 1012.7 |
| 20260509193536 | 101 | 234 | 1.0 | 5.0 | 0.00 | 0.00 | 0.00 | 8 | 1012.7 |
| 20260509193033 | 100 | 122 | 3.0 | 4.0 | 0.00 | 0.00 | 0.00 | 8 | 1012.8 |
| 20260509192529 | 100 | 114 | 3.0 | 8.0 | 0.00 | 0.00 | 0.00 | 8 | 1012.8 |
| 20260509192025 | 100 | 29 | 1.0 | 4.0 | 0.00 | 0.00 | 0.00 | 9 | 1012.8 |
| 20260509191519 | 100 | 103 | 6.0 | 6.0 | 0.00 | 0.00 | 0.00 | 8 | 1012.9 |
| 20260509191015 | 100 | 119 | 7.0 | 8.0 | 0.00 | 0.00 | 0.00 | 8 | 1013.0 |
| 20260509190512 | 99 | 116 | 4.0 | 6.0 | 0.00 | 0.00 | 0.00 | 8 | 1013.0 |
| 20260509190010 | 100 | 81 | 2.0 | 7.0 | 0.00 | 0.00 | 0.00 | 9 | 1012.9 |
| 20260509185507 | 100 | 227 | 4.0 | 5.0 | 0.00 | 0.00 | 0.00 | 8 | 1013.0 |
| 20260509185003 | 100 | 190 | 1.0 | 3.0 | 0.00 | 0.00 | 0.00 | 8 | 1013.0 |
| 20260509184502 | 100 | 167 | 1.0 | 2.0 | 0.00 | 0.00 | 0.00 | 8 | 1013.2 |
| 20260509183958 | 99 | 104 | 2.0 | 4.0 | 0.00 | 0.00 | 0.00 | 8 | 1013.2 |
| 20260509183452 | 98 | 73 | 2.0 | 7.0 | 0.00 | 0.00 | 0.00 | 9 | 1013.3 |
| 20260509182949 | 99 | 226 | 0.0 | 5.0 | 0.00 | 0.00 | 0.00 | 8 | 1013.3 |
| 20260509182445 | 99 | 145 | 3.0 | 4.0 | 0.00 | 0.00 | 0.00 | 8 | 1013.4 |
| 20260509181943 | 100 | 195 | 1.0 | 4.0 | 0.00 | 0.00 | 0.00 | 8 | 1013.3 |
| 20260509181441 | 98 | 290 | 2.0 | 3.0 | 0.00 | 0.00 | 0.00 | 9 | 1013.7 |
| 20260509180938 | 98 | 193 | 2.0 | 3.0 | 0.00 | 0.00 | 0.00 | 8 | 1013.6 |
| 20260509180433 | 97 | 120 | 4.0 | 6.0 | 0.00 | 0.00 | 0.00 | 9 | 1013.7 |
| 20260509175931 | 97 | 173 | 0.0 | 4.0 | 0.00 | 0.00 | 0.00 | 9 | 1013.5 |
| 20260509175427 | 96 | 197 | 0.0 | 4.0 | 0.00 | 0.00 | 0.00 | 9 | 1013.7 |
| 20260509174923 | 96 | 124 | 2.0 | 4.0 | 0.00 | 0.00 | 0.00 | 8 | 1013.6 |
| 20260509174419 | 96 | 98 | 3.0 | 5.0 | 0.00 | 0.00 | 0.00 | 10 | 1013.7 |
| 20260509173915 | 97 | 124 | 3.0 | 5.0 | 0.00 | 0.00 | 0.00 | 9 | 1013.5 |
| 20260509173410 | 97 | 78 | 4.0 | 6.0 | 0.00 | 0.00 | 0.00 | 10 | 1013.7 |
| 20260509172906 | 95 | 33 | 1.0 | 3.0 | 0.00 | 0.00 | 0.00 | 11 | 1013.8 |
| 20260509172403 | 95 | 119 | 3.0 | 9.0 | 0.00 | 0.00 | 0.00 | 11 | 1013.6 |
| 20260509171858 | 95 | 304 | 0.0 | 3.0 | 0.00 | 0.00 | 0.00 | 11 | 1013.6 |
| 20260509171354 | 94 | 103 | 0.0 | 5.0 | 0.00 | 0.00 | 0.00 | 10 | 1013.6 |
| 20260509170846 | 95 | 82 | 2.0 | 4.0 | 0.00 | 0.00 | 0.00 | 11 | 1013.5 |
| 20260509170341 | 95 | 93 | 3.0 | 3.0 | 0.00 | 0.00 | 0.00 | 11 | 1013.7 |
| 20260509165836 | 95 | 67 | 3.0 | 4.0 | 0.00 | 0.00 | 0.00 | 10 | 1013.6 |
| 20260509165330 | 95 | 341 | 0.0 | 4.0 | 0.00 | 0.00 | 0.00 | 12 | 1013.5 |
| 20260509164827 | 95 | 124 | 2.0 | 3.0 | 0.00 | 0.00 | 0.00 | 11 | 1013.5 |
| 20260509164323 | 95 | 114 | 2.0 | 2.0 | 0.00 | 0.00 | 0.00 | 11 | 1013.4 |
| 20260509163820 | 94 | 191 | 0.0 | 2.0 | 0.00 | 0.00 | 0.00 | 11 | 1013.5 |
| 20260509163317 | 94 | 21 | 1.0 | 4.0 | 0.00 | 0.00 | 0.00 | 12 | 1013.6 |
| 20260509162816 | 94 | 343 | 2.0 | 2.0 | 0.00 | 0.00 | 0.00 | 12 | 1013.6 |
| 20260509162314 | 92 | 257 | 1.0 | 2.0 | 0.00 | 0.00 | 0.00 | 11 | 1013.5 |
| 20260509161811 | 94 | 84 | 2.0 | 3.0 | 0.00 | 0.00 | 0.00 | 11 | 1013.6 |
| 20260509161307 | 93 | 278 | 2.0 | 2.0 | 0.00 | 0.00 | 0.00 | 12 | 1013.5 |
| 20260509160802 | 93 | 161 | 0.0 | 1.0 | 0.00 | 0.00 | 0.00 | 12 | 1013.4 |
| 20260509160259 | 91 | 46 | 0.0 | 4.0 | 0.00 | 0.00 | 0.00 | 13 | 1013.5 |
| 20260509155754 | 92 | 110 | 0.0 | 3.0 | 0.00 | 0.00 | 0.00 | 13 | 1013.5 |
| 20260509155251 | 92 | 338 | 2.0 | 3.0 | 0.00 | 0.00 | 0.00 | 13 | 1013.4 |
| 20260509154747 | 92 | 87 | 2.0 | 2.0 | 0.00 | 0.00 | 0.00 | 12 | 1013.5 |
| 20260509154244 | 91 | 11 | 0.0 | 2.0 | 0.00 | 0.00 | 0.00 | 12 | 1013.6 |
| 20260509153741 | 91 | 3 | 0.0 | 2.0 | 0.00 | 0.00 | 0.00 | 14 | 1013.3 |
| 20260509153237 | 92 | 110 | 0.0 | 1.0 | 0.00 | 0.00 | 0.00 | 14 | 1013.5 |
| 20260509152734 | 90 | 113 | 0.0 | 2.0 | 0.00 | 0.00 | 0.00 | 14 | 1013.5 |
| 20260509152230 | 92 | 6 | 0.0 | 2.0 | 0.00 | 0.00 | 0.00 | 16 | 1013.5 |
| 20260509151727 | 90 | 73 | 0.0 | 2.0 | 0.00 | 0.00 | 0.00 | 15 | 1013.6 |
| 20260509151224 | 88 | 84 | 2.0 | 2.0 | 0.00 | 0.00 | 0.00 | 16 | 1013.5 |
| 20260509150722 | 88 | 33 | 0.0 | 2.0 | 0.00 | 0.00 | 0.00 | 19 | 1013.6 |
| 20260509150220 | 87 | 349 | 0.0 | 2.0 | 0.00 | 0.00 | 0.00 | 17 | 1013.3 |
| 20260509145716 | 87 | 359 | 2.0 | 3.0 | 0.00 | 0.00 | 0.00 | 18 | 1013.3 |
| 20260509145211 | 87 | 328 | 2.0 | 2.0 | 0.00 | 0.00 | 0.00 | 16 | 1013.4 |
| 20260509144708 | 89 | 34 | 0.0 | 2.0 | 0.00 | 0.00 | 0.00 | 15 | 1013.4 |
| 20260509144205 | 86 | 67 | 0.0 | 1.0 | 0.00 | 0.00 | 0.00 | 16 | 1013.3 |
| 20260509143702 | 85 | 34 | 1.0 | 2.0 | 0.00 | 0.00 | 0.00 | 16 | 1013.4 |
| 20260509143159 | 84 | 75 | 1.0 | 2.0 | 0.00 | 0.00 | 0.00 | 16 | 1013.2 |
| 20260509142655 | 84 | 94 | 2.0 | 3.0 | 0.00 | 0.00 | 0.00 | 15 | 1013.4 |
| 20260509142152 | 84 | 58 | 0.0 | 2.0 | 0.00 | 0.00 | 0.00 | 14 | 1013.2 |
| 20260509141647 | 82 | 125 | 0.0 | 1.0 | 0.00 | 0.00 | 0.00 | 15 | 1013.1 |
| 20260509141144 | 80 | 140 | 0.0 | 1.0 | 0.00 | 0.00 | 0.00 | 18 | 1013.0 |
| 20260509140641 | 79 | 174 | 0.0 | 1.0 | 0.00 | 0.00 | 0.00 | 19 | 1012.9 |
| 20260509140139 | 78 | 224 | 0.0 | 1.0 | 0.00 | 0.00 | 0.00 | 19 | 1012.9 |
| 20260509135636 | 76 | 304 | 0.0 | 1.0 | 0.00 | 0.00 | 0.00 | 19 | 1012.9 |
| 20260509135134 | 75 | 226 | 2.0 | 2.0 | 0.00 | 0.00 | 0.00 | 18 | 1012.8 |
| 20260509134630 | 73 | 278 | 2.0 | 3.0 | 0.00 | 0.00 | 0.00 | 17 | 1013.1 |
| 20260509134128 | 72 | 205 | 2.0 | 2.0 | 0.00 | 0.00 | 0.00 | 17 | 1013.0 |
| 20260509133625 | 70 | 197 | 0.0 | 2.0 | 0.00 | 0.00 | 0.00 | 17 | 1013.0 |
| 20260509133122 | 70 | 198 | 2.0 | 2.0 | 0.00 | 0.00 | 0.00 | 18 | 1012.9 |
| 20260509132620 | 68 | 301 | 0.0 | 2.0 | 0.00 | 0.00 | 0.00 | 17 | 1012.7 |
| 20260509132118 | 67 | 249 | 1.0 | 2.0 | 0.00 | 0.00 | 0.00 | 19 | 1012.7 |
| 20260509131614 | 67 | 222 | 1.0 | 2.0 | 0.00 | 0.00 | 0.00 | 20 | 1012.7 |
| 20260509131111 | 66 | 301 | 1.0 | 2.0 | 0.00 | 0.00 | 0.00 | 18 | 1012.6 |
| 20260509130607 | 65 | 146 | 0.0 | 2.0 | 0.00 | 0.00 | 0.00 | 20 | 1012.5 |
| 20260509130104 | 66 | 244 | 0.0 | 2.0 | 0.00 | 0.00 | 0.00 | 20 | 1012.4 |
| 20260509125600 | 66 | 165 | 0.0 | 2.0 | 0.00 | 0.00 | 0.00 | 19 | 1012.4 |
| 20260509125057 | 67 | 194 | 1.0 | 2.0 | 0.00 | 0.00 | 0.00 | 18 | 1012.5 |
| 20260509124553 | 68 | 271 | 2.0 | 2.0 | 0.00 | 0.00 | 0.00 | 18 | 1012.4 |
| 20260509124051 | 67 | 269 | 0.0 | 2.0 | 0.00 | 0.00 | 0.00 | 18 | 1012.5 |
| 20260509123549 | 66 | 260 | 1.0 | 2.0 | 0.00 | 0.00 | 0.00 | 19 | 1012.4 |
| 20260509123045 | 66 | 266 | 2.0 | 3.0 | 0.00 | 0.00 | 0.00 | 18 | 1012.4 |
| 20260509122541 | 66 | 199 | 0.0 | 1.0 | 0.00 | 0.00 | 0.00 | 19 | 1012.4 |
| 20260509122038 | 66 | 299 | 0.0 | 2.0 | 0.00 | 0.00 | 0.00 | 19 | 1012.3 |
| 20260509121534 | 68 | 252 | 2.0 | 4.0 | 0.00 | 0.00 | 0.00 | 17 | 1012.1 |
| 20260509121032 | 68 | 279 | 2.0 | 2.0 | 0.00 | 0.00 | 0.00 | 17 | 1012.0 |
| 20260509120531 | 69 | 304 | 2.0 | 2.0 | 0.00 | 0.00 | 0.00 | 16 | 1012.2 |
| 20260509120029 | 69 | 139 | 0.0 | 2.0 | 0.00 | 0.00 | 0.00 | 17 | 1012.0 |
| 20260509115525 | 69 | 215 | 1.0 | 2.0 | 0.00 | 0.00 | 0.00 | 17 | 1012.0 |
| 20260509115023 | 67 | 188 | 1.0 | 2.0 | 0.00 | 0.00 | 0.00 | 18 | 1012.0 |
| 20260509114521 | 68 | 240 | 1.0 | 3.0 | 0.00 | 0.00 | 0.00 | 18 | 1012.0 |
| 20260509114020 | 68 | 194 | 0.0 | 2.0 | 0.00 | 0.00 | 0.00 | 19 | 1011.8 |
| 20260509113517 | 66 | 221 | 0.0 | 2.0 | 0.00 | 0.00 | 0.00 | 20 | 1012.2 |
| 20260509113015 | 66 | 258 | 0.0 | 2.0 | 0.00 | 0.00 | 0.00 | 20 | 1012.2 |
| 20260509112511 | 67 | 202 | 0.0 | 2.0 | 0.00 | 0.00 | 0.00 | 21 | 1012.1 |
| 20260509112008 | 69 | 218 | 0.0 | 2.0 | 0.00 | 0.00 | 0.00 | 22 | 1012.0 |
| 20260509111505 | 68 | 210 | 1.0 | 2.0 | 0.00 | 0.00 | 0.00 | 21 | 1012.1 |
| 20260509111002 | 68 | 197 | 0.0 | 2.0 | 0.00 | 0.00 | 0.00 | 20 | 1012.1 |
| 20260509110459 | 68 | 312 | 2.0 | 2.0 | 0.00 | 0.00 | 0.00 | 20 | 1012.2 |
| 20260509105956 | 66 | 193 | 0.0 | 2.0 | 0.00 | 0.00 | 0.00 | 21 | 1012.1 |
| 20260509105455 | 66 | 246 | 2.0 | 3.0 | 0.00 | 0.00 | 0.00 | 21 | 1012.1 |
| 20260509104951 | 66 | 226 | 2.0 | 4.0 | 0.00 | 0.00 | 0.00 | 21 | 1012.1 |
| 20260509104448 | 67 | 305 | 0.0 | 2.0 | 0.00 | 0.00 | 0.00 | 20 | 1012.2 |
| 20260509103946 | 68 | 218 | 0.0 | 2.0 | 0.00 | 0.00 | 0.00 | 19 | 1012.1 |
| 20260509103443 | 68 | 338 | 0.0 | 4.0 | 0.00 | 0.00 | 0.00 | 19 | 1012.3 |
| 20260509102941 | 68 | 157 | 2.0 | 2.0 | 0.00 | 0.00 | 0.00 | 18 | 1012.1 |
| 20260509102438 | 67 | 229 | 2.0 | 4.0 | 0.00 | 0.00 | 0.00 | 19 | 1012.2 |
| 20260509101934 | 68 | 269 | 0.0 | 2.0 | 0.00 | 0.00 | 0.00 | 20 | 1012.3 |
| 20260509101431 | 68 | 331 | 0.0 | 2.0 | 0.00 | 0.00 | 0.00 | 20 | 1012.2 |
| 20260509100928 | 67 | 196 | 1.0 | 2.0 | 0.00 | 0.00 | 0.00 | 20 | 1011.8 |
| 20260509100425 | 67 | 263 | 1.0 | 2.0 | 0.00 | 0.00 | 0.00 | 20 | 1012.4 |
| 20260509095922 | 67 | 243 | 0.0 | 2.0 | 0.00 | 0.00 | 0.00 | 20 | 1012.3 |
| 20260509095419 | 67 | 245 | 1.0 | 2.0 | 0.00 | 0.00 | 0.00 | 20 | 1012.4 |
| 20260509094916 | 68 | 235 | 2.0 | 2.0 | 0.00 | 0.00 | 0.00 | 21 | 1012.4 |
| 20260509094412 | 69 | 269 | 0.0 | 0.0 | 0.00 | 0.00 | 0.00 | 24 | 1012.4 |
| 20260509093910 | 69 | 196 | 0.0 | 2.0 | 0.00 | 0.00 | 0.00 | 25 | 1012.4 |
| 20260509093407 | 69 | 208 | 0.0 | 2.0 | 0.00 | 0.00 | 0.00 | 26 | 1012.4 |
| 20260509092906 | 68 | 185 | 1.0 | 2.0 | 0.00 | 0.00 | 0.00 | 26 | 1012.4 |
| 20260509092403 | 68 | 177 | 0.0 | 3.0 | 0.00 | 0.00 | 0.00 | 24 | 1012.5 |
| 20260509091901 | 68 | 293 | 1.0 | 2.0 | 0.00 | 0.00 | 0.00 | 23 | 1012.5 |
| 20260509091358 | 69 | 229 | 0.0 | 2.0 | 0.00 | 0.00 | 0.00 | 21 | 1012.6 |
| 20260509090855 | 70 | 233 | 0.0 | 2.0 | 0.00 | 0.00 | 0.00 | 20 | 1012.4 |
| 20260509090352 | 71 | 18 | 2.0 | 3.0 | 0.00 | 0.00 | 0.00 | 19 | 1012.9 |
| 20260509085850 | 72 | 66 | 0.0 | 1.0 | 0.00 | 0.00 | 0.00 | 18 | 1012.7 |
| 20260509085347 | 72 | 284 | 2.0 | 4.0 | 0.00 | 0.00 | 0.00 | 17 | 1012.5 |
| 20260509084843 | 72 | 226 | 0.0 | 2.0 | 0.00 | 0.00 | 0.00 | 17 | 1012.6 |
| 20260509084340 | 73 | 222 | 0.0 | 2.0 | 0.00 | 0.00 | 0.00 | 19 | 1012.7 |
| 20260509083838 | 72 | 147 | 1.0 | 2.0 | 0.00 | 0.00 | 0.00 | 19 | 1012.6 |
| 20260509083334 | 72 | 208 | 0.0 | 2.0 | 0.00 | 0.00 | 0.00 | 18 | 1012.5 |
| 20260509082831 | 73 | 176 | 0.0 | 2.0 | 0.00 | 0.00 | 0.00 | 18 | 1012.7 |
| 20260509082327 | 73 | 133 | 0.0 | 3.0 | 0.00 | 0.00 | 0.00 | 17 | 1012.8 |
| 20260509081825 | 72 | 201 | 0.0 | 2.0 | 0.00 | 0.00 | 0.00 | 17 | 1012.9 |
| 20260509081322 | 72 | 117 | 0.0 | 1.0 | 0.00 | 0.00 | 0.00 | 20 | 1012.7 |
| 20260509080820 | 72 | 244 | 1.0 | 2.0 | 0.00 | 0.00 | 0.00 | 19 | 1012.9 |
| 20260509080318 | 72 | 196 | 1.0 | 2.0 | 0.00 | 0.00 | 0.00 | 19 | 1013.0 |
| 20260509075816 | 71 | 174 | 1.0 | 2.0 | 0.00 | 0.00 | 0.00 | 20 | 1012.8 |
| 20260509075313 | 71 | 149 | 0.0 | 2.0 | 0.00 | 0.00 | 0.00 | 20 | 1013.0 |
| 20260509074809 | 72 | 242 | 0.0 | 1.0 | 0.00 | 0.00 | 0.00 | 21 | 1013.0 |
| 20260509074307 | 73 | 255 | 2.0 | 3.0 | 0.00 | 0.00 | 0.00 | 20 | 1013.0 |
| 20260509073803 | 74 | 298 | 1.0 | 1.0 | 0.00 | 0.00 | 0.00 | 21 | 1013.1 |
| 20260509073300 | 74 | 184 | 0.0 | 2.0 | 0.00 | 0.00 | 0.00 | 23 | 1013.0 |
| 20260509072756 | 74 | 227 | 2.0 | 2.0 | 0.00 | 0.00 | 0.00 | 23 | 1012.9 |
| 20260509072253 | 75 | 215 | 1.0 | 3.0 | 0.00 | 0.00 | 0.00 | 24 | 1013.1 |
| 20260509071750 | 74 | 206 | 2.0 | 2.0 | 0.00 | 0.00 | 0.00 | 27 | 1013.1 |
| 20260509071247 | 75 | 194 | 2.0 | 2.0 | 0.00 | 0.00 | 0.00 | 28 | 1013.3 |
| 20260509070744 | 75 | 211 | 1.0 | 2.0 | 0.00 | 0.00 | 0.00 | 23 | 1013.1 |
| 20260509070240 | 74 | 193 | 1.0 | 2.0 | 0.00 | 0.00 | 0.00 | 21 | 1013.2 |
| 20260509065737 | 73 | 213 | 2.0 | 2.0 | 0.00 | 0.00 | 0.00 | 21 | 1013.2 |
| 20260509065233 | 73 | 269 | 0.0 | 2.0 | 0.00 | 0.00 | 0.00 | 19 | 1013.2 |
| 20260509064729 | 75 | 218 | 2.0 | 2.0 | 0.00 | 0.00 | 0.00 | 19 | 1013.2 |
| 20260509064227 | 76 | 124 | 0.0 | 2.0 | 0.00 | 0.00 | 0.00 | 20 | 1013.3 |
| 20260509063724 | 77 | 230 | 0.0 | 1.0 | 0.00 | 0.00 | 0.00 | 21 | 1013.2 |
| 20260509063220 | 76 | 150 | 0.0 | 2.0 | 0.00 | 0.00 | 0.00 | 21 | 1013.1 |
| 20260509062718 | 77 | 235 | 0.0 | 2.0 | 0.00 | 0.00 | 0.00 | 20 | 1013.3 |
| 20260509062215 | 77 | 135 | 0.0 | 1.0 | 0.00 | 0.00 | 0.00 | 20 | 1013.2 |
| 20260509061712 | 77 | 194 | 3.0 | 3.0 | 0.00 | 0.00 | 0.00 | 17 | 1013.3 |
| 20260509061210 | 78 | 141 | 2.0 | 2.0 | 0.00 | 0.00 | 0.00 | 16 | 1013.4 |
| 20260509060707 | 78 | 98 | 1.0 | 3.0 | 0.00 | 0.00 | 0.00 | 16 | 1013.4 |
| 20260509060203 | 78 | 197 | 0.0 | 2.0 | 0.00 | 0.00 | 0.00 | 17 | 1013.3 |
| 20260509055659 | 78 | 217 | 0.0 | 2.0 | 0.00 | 0.00 | 0.00 | 17 | 1013.4 |
| 20260509055155 | 78 | 223 | 2.0 | 3.0 | 0.00 | 0.00 | 0.00 | 17 | 1013.4 |
| 20260509054651 | 79 | 232 | 0.0 | 3.0 | 0.00 | 0.00 | 0.00 | 16 | 1013.7 |
| 20260509054149 | 79 | 240 | 1.0 | 4.0 | 0.00 | 0.00 | 0.00 | 16 | 1013.5 |
| 20260509053647 | 77 | 210 | 0.0 | 2.0 | 0.00 | 0.00 | 0.00 | 17 | 1013.4 |
| 20260509053144 | 77 | 248 | 0.0 | 2.0 | 0.00 | 0.00 | 0.00 | 16 | 1013.6 |
| 20260509052642 | 79 | 174 | 1.0 | 3.0 | 0.00 | 0.00 | 0.00 | 16 | 1013.6 |
| 20260509052139 | 78 | 228 | 1.0 | 2.0 | 0.00 | 0.00 | 0.00 | 16 | 1013.6 |
| 20260509051637 | 77 | 227 | 1.0 | 2.0 | 0.00 | 0.00 | 0.00 | 16 | 1013.7 |
| 20260509051134 | 79 | 231 | 0.0 | 2.0 | 0.00 | 0.00 | 0.00 | 16 | 1013.8 |
| 20260509050631 | 79 | 190 | 0.0 | 2.0 | 0.00 | 0.00 | 0.00 | 16 | 1013.5 |
| 20260509050127 | 79 | 73 | 0.0 | 4.0 | 0.00 | 0.00 | 0.00 | 15 | 1013.6 |
| 20260509045625 | 80 | 141 | 0.0 | 2.0 | 0.00 | 0.00 | 0.00 | 15 | 1013.5 |
| 20260509045121 | 82 | 180 | 1.0 | 2.0 | 0.00 | 0.00 | 0.00 | 15 | 1013.5 |
| 20260509044619 | 82 | 180 | 0.0 | 2.0 | 0.00 | 0.00 | 0.00 | 15 | 1013.4 |
| 20260509044116 | 83 | 174 | 1.0 | 2.0 | 0.00 | 0.00 | 0.00 | 15 | 1013.5 |
| 20260509043612 | 84 | 137 | 2.0 | 3.0 | 0.00 | 0.00 | 0.00 | 15 | 1013.5 |
| 20260509043108 | 84 | 162 | 3.0 | 4.0 | 0.00 | 0.00 | 0.00 | 15 | 1013.4 |
| 20260509042605 | 85 | 62 | 0.0 | 3.0 | 0.00 | 0.00 | 0.00 | 15 | 1013.3 |
| 20260509042100 | 84 | 154 | 2.0 | 2.0 | 0.00 | 0.00 | 0.00 | 15 | 1013.3 |
| 20260509041558 | 84 | 88 | 1.0 | 3.0 | 0.00 | 0.00 | 0.00 | 15 | 1013.3 |
| 20260509041055 | 85 | 85 | 1.0 | 3.0 | 0.00 | 0.00 | 0.00 | 15 | 1013.2 |
| 20260509040553 | 83 | 134 | 1.0 | 2.0 | 0.00 | 0.00 | 0.00 | 16 | 1013.1 |
| 20260509040050 | 84 | 109 | 2.0 | 2.0 | 0.00 | 0.00 | 0.00 | 15 | 1013.1 |
| 20260509035547 | 85 | 77 | 0.0 | 3.0 | 0.00 | 0.00 | 0.00 | 15 | 1013.1 |
| 20260509035043 | 85 | 94 | 1.0 | 2.0 | 0.00 | 0.00 | 0.00 | 15 | 1013.1 |
| 20260509034542 | 86 | 180 | 1.0 | 3.0 | 0.00 | 0.00 | 0.00 | 14 | 1013.0 |
| 20260509034038 | 87 | 76 | 2.0 | 2.0 | 0.00 | 0.00 | 0.00 | 14 | 1012.8 |
| 20260509033536 | 87 | 109 | 2.0 | 3.0 | 0.00 | 0.00 | 0.00 | 13 | 1012.9 |
| 20260509033032 | 88 | 163 | 1.0 | 3.0 | 0.00 | 0.00 | 0.00 | 13 | 1012.9 |
| 20260509032529 | 89 | 155 | 2.0 | 4.0 | 0.00 | 0.00 | 0.00 | 12 | 1012.8 |
| 20260509032027 | 91 | 182 | 1.0 | 6.0 | 0.00 | 0.00 | 0.00 | 11 | 1012.7 |
| 20260509031524 | 89 | 246 | 6.0 | 8.0 | 0.00 | 0.00 | 0.00 | 12 | 1012.7 |
| 20260509031021 | 90 | 248 | 4.0 | 10.0 | 0.00 | 0.00 | 0.00 | 12 | 1012.7 |
| 20260509030519 | 90 | 262 | 3.0 | 8.0 | 0.00 | 0.00 | 0.00 | 12 | 1012.7 |
| 20260509030016 | 89 | 285 | 5.0 | 8.0 | 0.00 | 0.00 | 0.00 | 12 | 1012.6 |
| 20260509025512 | 91 | 246 | 4.0 | 6.0 | 0.00 | 0.00 | 0.00 | 12 | 1012.5 |
| 20260509025007 | 90 | 267 | 1.0 | 8.0 | 0.00 | 0.00 | 0.00 | 13 | 1012.4 |
| 20260509024503 | 91 | 243 | 4.0 | 6.0 | 0.00 | 0.00 | 0.00 | 12 | 1012.1 |
| 20260509024000 | 91 | 236 | 5.0 | 12.0 | 0.00 | 0.00 | 0.00 | 13 | 1012.3 |
| 20260509023458 | 91 | 256 | 6.0 | 8.0 | 0.00 | 0.00 | 0.00 | 13 | 1012.2 |
| 20260509022954 | 91 | 266 | 7.0 | 11.0 | 0.00 | 0.00 | 0.00 | 13 | 1012.1 |
| 20260509022451 | 91 | 257 | 4.0 | 6.0 | 0.00 | 0.00 | 0.00 | 13 | 1012.4 |
| 20260509021949 | 91 | 291 | 4.0 | 8.0 | 0.00 | 0.00 | 0.00 | 13 | 1012.3 |
| 20260509021445 | 91 | 243 | 9.0 | 11.0 | 0.00 | 0.00 | 0.00 | 12 | 1012.1 |
| 20260509020943 | 92 | 265 | 4.0 | 9.0 | 0.00 | 0.00 | 0.00 | 12 | 1012.1 |
| 20260509020441 | 92 | 243 | 10.0 | 11.0 | 0.00 | 0.00 | 0.00 | 13 | 1012.2 |
| 20260509015938 | 92 | 253 | 7.0 | 11.0 | 0.00 | 0.00 | 0.00 | 13 | 1012.2 |
| 20260509015437 | 93 | 288 | 2.0 | 5.0 | 0.00 | 0.00 | 0.00 | 12 | 1012.1 |
| 20260509014933 | 92 | 258 | 4.0 | 10.0 | 0.00 | 0.00 | 0.00 | 13 | 1012.1 |
| 20260509014429 | 93 | 304 | 7.0 | 10.0 | 0.00 | 0.00 | 0.00 | 12 | 1012.2 |
| 20260509013926 | 93 | 287 | 8.0 | 11.0 | 0.00 | 0.00 | 0.00 | 12 | 1012.0 |
| 20260509013423 | 93 | 298 | 6.0 | 8.0 | 0.00 | 0.00 | 0.00 | 12 | 1012.0 |
| 20260509012918 | 94 | 265 | 6.0 | 12.0 | 0.00 | 0.00 | 0.00 | 12 | 1011.7 |
| 20260509012415 | 95 | 306 | 10.0 | 11.0 | 0.00 | 0.00 | 0.00 | 11 | 1012.1 |
| 20260509011913 | 97 | 262 | 7.0 | 10.0 | 0.00 | 0.00 | 0.00 | 11 | 1012.0 |
| 20260509011410 | 97 | 308 | 5.0 | 10.0 | 0.00 | 0.00 | 0.00 | 11 | 1012.0 |
| 20260509010908 | 96 | 312 | 12.0 | 16.0 | 0.00 | 0.00 | 0.00 | 11 | 1012.0 |
| 20260509010405 | 97 | 337 | 3.0 | 10.0 | 0.00 | 0.00 | 0.00 | 12 | 1011.8 |
| 20260509005902 | 97 | 327 | 7.0 | 12.0 | 0.00 | 0.00 | 0.00 | 11 | 1011.7 |
| 20260509005400 | 97 | 306 | 10.0 | 15.0 | 0.00 | 0.00 | 0.00 | 10 | 1011.8 |